Voltar ao catálogo

SAOCOM 1-B

AtivoCiênciaSSO
NORAD 46265·PAYLOAD·🇦🇷 Argentina

Lançado Aug 30, 2020 de Cape Canaveral Space Force Station

Loading…

Próximas Passagens (próximas 24 horas)

TLE

AtualizadoSource: Space-Track

Época: Sep 14, 2026, 14:50 UTC

1 46265U 20059A   26257.61873984  .00000675  00000-0  91387-4 0  9997
2 46265  97.8897  82.1828 0001394  81.0659 279.0711 14.82147075326735

Acompanhe SAOCOM 1-B em tempo real com AllMySat

Download on the App Store